Year,Month,Day,Hour,Minute,Value (Times are PST for temperature in C)
2014,09,19,00,00,17.10
2014,09,19,00,01,17.10
2014,09,19,00,02,17.10
2014,09,19,00,03,17.20
2014,09,19,00,04,17.20
2014,09,19,00,05,17.20
2014,09,19,00,06,17.20
2014,09,19,00,07,17.20
2014,09,19,00,08,17.20
2014,09,19,00,09,17.20
2014,09,19,00,10,17.10
2014,09,19,00,11,17.20
2014,09,19,00,12,17.10
2014,09,19,00,13,17.10
2014,09,19,00,14,17.10
2014,09,19,00,15,17.10
2014,09,19,00,16,17.10
2014,09,19,00,17,17.10
2014,09,19,00,18,17.10
2014,09,19,00,19,17.10
2014,09,19,00,20,17.10
2014,09,19,00,21,17.10
2014,09,19,00,22,17.10
2014,09,19,00,23,17.20
2014,09,19,00,24,17.20
2014,09,19,00,25,17.20
2014,09,19,00,26,17.20
2014,09,19,00,27,17.20
2014,09,19,00,28,17.20
2014,09,19,00,29,17.20
2014,09,19,00,30,17.20
2014,09,19,00,31,17.20
2014,09,19,00,32,17.20
2014,09,19,00,33,17.20
2014,09,19,00,34,17.20
2014,09,19,00,35,17.20
2014,09,19,00,36,17.20
2014,09,19,00,37,17.20
2014,09,19,00,38,17.20
2014,09,19,00,39,17.20
2014,09,19,00,40,17.20
2014,09,19,00,41,17.20
2014,09,19,00,42,17.20
2014,09,19,00,43,17.20
2014,09,19,00,44,17.20
2014,09,19,00,45,17.20
2014,09,19,00,46,17.20
2014,09,19,00,47,17.20
2014,09,19,00,48,17.20
2014,09,19,00,49,17.20
2014,09,19,00,50,17.20
2014,09,19,00,51,17.20
2014,09,19,00,52,17.20
2014,09,19,00,53,17.20
2014,09,19,00,54,17.20
2014,09,19,00,55,17.20
2014,09,19,00,56,17.20
2014,09,19,00,57,17.20
2014,09,19,00,58,17.20
2014,09,19,00,59,17.20
2014,09,19,01,00,17.20
2014,09,19,01,01,17.20
2014,09,19,01,02,17.20
2014,09,19,01,03,17.20
2014,09,19,01,04,17.20
2014,09,19,01,05,17.20
2014,09,19,01,06,17.20
2014,09,19,01,07,17.20
2014,09,19,01,08,17.20
2014,09,19,01,09,17.20
2014,09,19,01,10,17.20
2014,09,19,01,11,17.20
2014,09,19,01,12,17.20
2014,09,19,01,13,17.20
2014,09,19,01,14,17.20
2014,09,19,01,15,17.20
2014,09,19,01,16,17.20
2014,09,19,01,17,17.20
2014,09,19,01,18,17.20
2014,09,19,01,19,17.20
2014,09,19,01,20,17.20
2014,09,19,01,21,17.20
2014,09,19,01,22,17.20
2014,09,19,01,23,17.20
2014,09,19,01,24,17.20
2014,09,19,01,25,17.20
2014,09,19,01,26,17.20
2014,09,19,01,27,17.20
2014,09,19,01,28,17.20
2014,09,19,01,29,17.20
2014,09,19,01,30,17.20
2014,09,19,01,31,17.20
2014,09,19,01,32,17.20
2014,09,19,01,33,17.20
2014,09,19,01,34,17.20
2014,09,19,01,35,17.30
2014,09,19,01,36,17.30
2014,09,19,01,37,17.20
2014,09,19,01,38,17.20
2014,09,19,01,39,17.30
2014,09,19,01,40,17.20
2014,09,19,01,41,17.30
2014,09,19,01,42,17.30
2014,09,19,01,43,17.30
2014,09,19,01,44,17.30
2014,09,19,01,45,17.30
2014,09,19,01,46,17.30
2014,09,19,01,47,17.30
2014,09,19,01,48,17.30
2014,09,19,01,49,17.30
2014,09,19,01,50,17.30
2014,09,19,01,51,17.30
2014,09,19,01,52,17.30
2014,09,19,01,53,17.30
2014,09,19,01,54,17.30
2014,09,19,01,55,17.30
2014,09,19,01,56,17.30
2014,09,19,01,57,17.30
2014,09,19,01,58,17.20
2014,09,19,01,59,17.30
2014,09,19,02,00,17.20
2014,09,19,02,01,17.20
2014,09,19,02,02,17.20
2014,09,19,02,03,17.20
2014,09,19,02,04,17.20
2014,09,19,02,05,17.20
2014,09,19,02,06,17.20
2014,09,19,02,07,17.20
2014,09,19,02,08,17.20
2014,09,19,02,09,17.20
2014,09,19,02,10,17.20
2014,09,19,02,11,17.20
2014,09,19,02,12,17.20
2014,09,19,02,13,17.20
2014,09,19,02,14,17.20
2014,09,19,02,15,17.20
2014,09,19,02,16,17.20
2014,09,19,02,17,17.20
2014,09,19,02,18,17.20
2014,09,19,02,19,17.20
2014,09,19,02,20,17.20
2014,09,19,02,21,17.20
2014,09,19,02,22,17.20
2014,09,19,02,23,17.20
2014,09,19,02,24,17.20
2014,09,19,02,25,17.30
2014,09,19,02,26,17.30
2014,09,19,02,27,17.30
2014,09,19,02,28,17.30
2014,09,19,02,29,17.30
2014,09,19,02,30,17.30
2014,09,19,02,31,17.30
2014,09,19,02,32,17.30
2014,09,19,02,33,17.30
2014,09,19,02,34,17.30
2014,09,19,02,35,17.30
2014,09,19,02,36,17.30
2014,09,19,02,37,17.30
2014,09,19,02,38,17.30
2014,09,19,02,39,17.30
2014,09,19,02,40,17.30
2014,09,19,02,41,17.30
2014,09,19,02,42,17.30
2014,09,19,02,43,17.30
2014,09,19,02,44,17.20
2014,09,19,02,45,17.20
2014,09,19,02,46,17.20
2014,09,19,02,47,17.20
2014,09,19,02,48,17.20
2014,09,19,02,49,17.20
2014,09,19,02,50,17.10
2014,09,19,02,51,17.10
2014,09,19,02,52,17.10
2014,09,19,02,53,17.10
2014,09,19,02,54,17.10
2014,09,19,02,55,17.10
2014,09,19,02,56,17.00
2014,09,19,02,57,17.00
2014,09,19,02,58,17.00
2014,09,19,02,59,17.00
2014,09,19,03,00,17.00
2014,09,19,03,01,17.00
2014,09,19,03,02,17.00
2014,09,19,03,03,17.00
2014,09,19,03,04,17.00
2014,09,19,03,05,17.00
2014,09,19,03,06,16.90
2014,09,19,03,07,16.90
2014,09,19,03,08,16.90
2014,09,19,03,09,16.90
2014,09,19,03,10,16.80
2014,09,19,03,11,16.80
2014,09,19,03,12,16.80
2014,09,19,03,13,16.90
2014,09,19,03,14,16.90
2014,09,19,03,15,16.90
2014,09,19,03,16,16.90
2014,09,19,03,17,16.80
2014,09,19,03,18,16.80
2014,09,19,03,19,16.80
2014,09,19,03,20,16.80
2014,09,19,03,21,16.80
2014,09,19,03,22,16.80
2014,09,19,03,23,16.80
2014,09,19,03,24,16.80
2014,09,19,03,25,16.80
2014,09,19,03,26,16.80
2014,09,19,03,27,16.80
2014,09,19,03,28,16.70
2014,09,19,03,29,16.70
2014,09,19,03,30,16.70
2014,09,19,03,31,16.70
2014,09,19,03,32,16.70
2014,09,19,03,33,16.70
2014,09,19,03,34,16.60
2014,09,19,03,35,16.60
2014,09,19,03,36,16.70
2014,09,19,03,37,16.70
2014,09,19,03,38,16.70
2014,09,19,03,39,16.70
2014,09,19,03,40,16.60
2014,09,19,03,41,16.60
2014,09,19,03,42,16.60
2014,09,19,03,43,16.60
2014,09,19,03,44,16.60
2014,09,19,03,45,16.60
2014,09,19,03,46,16.60
2014,09,19,03,47,16.60
2014,09,19,03,48,16.60
2014,09,19,03,49,16.60
2014,09,19,03,50,16.60
2014,09,19,03,51,16.50
2014,09,19,03,52,16.50
2014,09,19,03,53,16.50
2014,09,19,03,54,16.50
2014,09,19,03,55,16.50
2014,09,19,03,56,16.60
2014,09,19,03,57,16.60
2014,09,19,03,58,16.60
2014,09,19,03,59,16.70
2014,09,19,04,00,16.70
2014,09,19,04,01,16.70
2014,09,19,04,02,16.80
2014,09,19,04,03,16.80
2014,09,19,04,04,16.90
2014,09,19,04,05,16.90
2014,09,19,04,06,17.00
2014,09,19,04,07,17.10
2014,09,19,04,08,17.10
2014,09,19,04,09,17.10
2014,09,19,04,10,17.20
2014,09,19,04,11,17.20
2014,09,19,04,12,17.20
2014,09,19,04,13,17.30
2014,09,19,04,14,17.30
2014,09,19,04,15,17.30
2014,09,19,04,16,17.30
2014,09,19,04,17,17.30
2014,09,19,04,18,17.40
2014,09,19,04,19,17.40
2014,09,19,04,20,17.40
2014,09,19,04,21,17.40
2014,09,19,04,22,17.40
2014,09,19,04,23,17.40
2014,09,19,04,24,17.40
2014,09,19,04,25,17.40
2014,09,19,04,26,17.40
2014,09,19,04,27,17.40
2014,09,19,04,28,17.40
2014,09,19,04,29,17.40
2014,09,19,04,30,17.40
2014,09,19,04,31,17.40
2014,09,19,04,32,17.40
2014,09,19,04,33,17.40
2014,09,19,04,34,17.40
2014,09,19,04,35,17.40
2014,09,19,04,36,17.40
2014,09,19,04,37,17.40
2014,09,19,04,38,17.40
2014,09,19,04,39,17.40
2014,09,19,04,40,17.40
2014,09,19,04,41,17.40
2014,09,19,04,42,17.40
2014,09,19,04,43,17.40
2014,09,19,04,44,17.40
2014,09,19,04,45,17.50
2014,09,19,04,46,17.50
2014,09,19,04,47,17.50
2014,09,19,04,48,17.50
2014,09,19,04,49,17.50
2014,09,19,04,50,17.40
2014,09,19,04,51,17.40
2014,09,19,04,52,17.40
2014,09,19,04,53,17.40
2014,09,19,04,54,17.40
2014,09,19,04,55,17.50
2014,09,19,04,56,17.50
2014,09,19,04,57,17.50
2014,09,19,04,58,17.50
2014,09,19,04,59,17.50
2014,09,19,05,00,17.50
2014,09,19,05,01,17.50
2014,09,19,05,02,17.50
2014,09,19,05,03,17.50
2014,09,19,05,04,17.50
2014,09,19,05,05,17.50
2014,09,19,05,06,17.40
2014,09,19,05,07,17.40
2014,09,19,05,08,17.40
2014,09,19,05,09,17.40
2014,09,19,05,10,17.40
2014,09,19,05,11,17.40
2014,09,19,05,12,17.40
2014,09,19,05,13,17.40
2014,09,19,05,14,17.40
2014,09,19,05,15,17.40
2014,09,19,05,16,17.40
2014,09,19,05,17,17.40
2014,09,19,05,18,17.40
2014,09,19,05,19,17.40
2014,09,19,05,20,17.40
2014,09,19,05,21,17.40
2014,09,19,05,22,17.40
2014,09,19,05,23,17.40
2014,09,19,05,24,17.40
2014,09,19,05,25,17.40
2014,09,19,05,26,17.40
2014,09,19,05,27,17.40
2014,09,19,05,28,17.40
2014,09,19,05,29,17.40
2014,09,19,05,30,17.40
2014,09,19,05,31,17.40
2014,09,19,05,32,17.40
2014,09,19,05,33,17.40
2014,09,19,05,34,17.40
2014,09,19,05,35,17.40
2014,09,19,05,36,17.40
2014,09,19,05,37,17.40
2014,09,19,05,38,17.40
2014,09,19,05,39,17.40
2014,09,19,05,40,17.40
2014,09,19,05,41,17.40
2014,09,19,05,42,17.40
2014,09,19,05,43,17.40
2014,09,19,05,44,17.40
2014,09,19,05,45,17.40
2014,09,19,05,46,17.40
2014,09,19,05,47,17.40
2014,09,19,05,48,17.40
2014,09,19,05,49,17.40
2014,09,19,05,50,17.40
2014,09,19,05,51,17.40
2014,09,19,05,52,17.40
2014,09,19,05,53,17.40
2014,09,19,05,54,17.40
2014,09,19,05,55,17.40
2014,09,19,05,56,17.40
2014,09,19,05,57,17.40
2014,09,19,05,58,17.40
2014,09,19,05,59,17.40
2014,09,19,06,00,17.40
2014,09,19,06,01,17.40
2014,09,19,06,02,17.40
2014,09,19,06,03,17.40
2014,09,19,06,04,17.40
2014,09,19,06,05,17.40
2014,09,19,06,06,17.40
2014,09,19,06,07,17.40
2014,09,19,06,08,17.40
2014,09,19,06,09,17.40
2014,09,19,06,10,17.40
2014,09,19,06,11,17.40
2014,09,19,06,12,17.40
2014,09,19,06,13,17.40
2014,09,19,06,14,17.40
2014,09,19,06,15,17.40
2014,09,19,06,16,17.30
2014,09,19,06,17,17.30
2014,09,19,06,18,17.30
2014,09,19,06,19,17.20
2014,09,19,06,20,17.20
2014,09,19,06,21,17.10
2014,09,19,06,22,17.10
2014,09,19,06,23,17.10
2014,09,19,06,24,17.00
2014,09,19,06,25,17.00
2014,09,19,06,26,16.90
2014,09,19,06,27,16.90
2014,09,19,06,28,16.90
2014,09,19,06,29,16.80
2014,09,19,06,30,16.80
2014,09,19,06,31,16.80
2014,09,19,06,32,16.80
2014,09,19,06,33,16.70
2014,09,19,06,34,16.70
2014,09,19,06,35,16.70
2014,09,19,06,36,16.60
2014,09,19,06,37,16.60
2014,09,19,06,38,16.60
2014,09,19,06,39,16.60
2014,09,19,06,40,16.60
2014,09,19,06,41,16.60
2014,09,19,06,42,16.60
2014,09,19,06,43,16.60
2014,09,19,06,44,16.60
2014,09,19,06,45,16.60
2014,09,19,06,46,16.60
2014,09,19,06,47,16.60
2014,09,19,06,48,16.60
2014,09,19,06,49,16.60
2014,09,19,06,50,16.60
2014,09,19,06,51,16.60
2014,09,19,06,52,16.60
2014,09,19,06,53,16.60
2014,09,19,06,54,16.60
2014,09,19,06,55,16.60
2014,09,19,06,56,16.60
2014,09,19,06,57,16.60
2014,09,19,06,58,16.60
2014,09,19,06,59,16.60
2014,09,19,07,00,16.60
2014,09,19,07,01,16.70
2014,09,19,07,02,16.70
2014,09,19,07,03,16.70
2014,09,19,07,04,16.70
2014,09,19,07,05,16.70
2014,09,19,07,06,16.70
2014,09,19,07,07,16.70
2014,09,19,07,08,16.70
2014,09,19,07,09,16.70
2014,09,19,07,10,16.60
2014,09,19,07,11,16.60
2014,09,19,07,12,16.60
2014,09,19,07,13,16.50
2014,09,19,07,14,16.50
2014,09,19,07,15,16.40
2014,09,19,07,16,16.30
2014,09,19,07,17,16.20
2014,09,19,07,18,16.10
2014,09,19,07,19,16.10
2014,09,19,07,20,16.00
2014,09,19,07,21,15.90
2014,09,19,07,22,15.80
2014,09,19,07,23,15.70
2014,09,19,07,24,15.70
2014,09,19,07,25,15.60
2014,09,19,07,26,15.50
2014,09,19,07,27,15.50
2014,09,19,07,28,15.40
2014,09,19,07,29,15.40
2014,09,19,07,30,15.30
2014,09,19,07,31,15.30
2014,09,19,07,32,15.30
2014,09,19,07,33,15.30
2014,09,19,07,34,15.30
2014,09,19,07,35,15.30
2014,09,19,07,36,15.30
2014,09,19,07,37,15.20
2014,09,19,07,38,15.20
2014,09,19,07,39,15.20
2014,09,19,07,40,15.20
2014,09,19,07,41,15.20
2014,09,19,07,42,15.20
2014,09,19,07,43,15.20
2014,09,19,07,44,15.20
2014,09,19,07,45,15.20
2014,09,19,07,46,15.30
2014,09,19,07,47,15.30
2014,09,19,07,48,15.30
2014,09,19,07,49,15.30
2014,09,19,07,50,15.30
2014,09,19,07,51,15.40
2014,09,19,07,52,15.40
2014,09,19,07,53,15.30
2014,09,19,07,54,15.30
2014,09,19,07,55,15.30
2014,09,19,07,56,15.20
2014,09,19,07,57,15.10
2014,09,19,07,58,15.00
2014,09,19,07,59,15.00
2014,09,19,08,00,15.00
2014,09,19,08,01,15.00
2014,09,19,08,02,15.00
2014,09,19,08,03,15.00
2014,09,19,08,04,14.90
2014,09,19,08,05,14.90
2014,09,19,08,06,14.80
2014,09,19,08,07,14.80
2014,09,19,08,08,14.80
2014,09,19,08,09,14.70
2014,09,19,08,10,14.70
2014,09,19,08,11,14.70
2014,09,19,08,12,14.60
2014,09,19,08,13,14.60
2014,09,19,08,14,14.50
2014,09,19,08,15,14.50
2014,09,19,08,16,14.50
2014,09,19,08,17,14.40
2014,09,19,08,18,14.40
2014,09,19,08,19,14.40
2014,09,19,08,20,14.40
2014,09,19,08,21,14.40
2014,09,19,08,22,14.40
2014,09,19,08,23,14.30
2014,09,19,08,24,14.30
2014,09,19,08,25,14.30
2014,09,19,08,26,14.30
2014,09,19,08,27,14.30
2014,09,19,08,28,14.30
2014,09,19,08,29,14.30
2014,09,19,08,30,14.30
2014,09,19,08,31,14.30
2014,09,19,08,32,14.30
2014,09,19,08,33,14.30
2014,09,19,08,34,14.40
2014,09,19,08,35,14.40
2014,09,19,08,36,14.40
2014,09,19,08,37,14.40
2014,09,19,08,38,14.40
2014,09,19,08,39,14.50
2014,09,19,08,40,14.50
2014,09,19,08,41,14.50
2014,09,19,08,42,14.60
2014,09,19,08,43,14.60
2014,09,19,08,44,14.60
2014,09,19,08,45,14.60
2014,09,19,08,46,14.70
2014,09,19,08,47,14.70
2014,09,19,08,48,14.70
2014,09,19,08,49,14.80
2014,09,19,08,50,14.80
2014,09,19,08,51,14.80
2014,09,19,08,52,14.80
2014,09,19,08,53,14.70
2014,09,19,08,54,14.70
2014,09,19,08,55,14.70
2014,09,19,08,56,14.70
2014,09,19,08,57,14.70
2014,09,19,08,58,14.70
2014,09,19,08,59,14.70
2014,09,19,09,00,14.70
2014,09,19,09,01,14.80
2014,09,19,09,02,14.80
2014,09,19,09,03,14.80
2014,09,19,09,04,14.80
2014,09,19,09,05,14.80
2014,09,19,09,06,14.80
2014,09,19,09,07,15.00
2014,09,19,09,08,15.00
2014,09,19,09,09,15.00
2014,09,19,09,10,15.00
2014,09,19,09,11,15.20
2014,09,19,09,12,15.20
2014,09,19,09,13,15.30
2014,09,19,09,14,15.30
2014,09,19,09,15,15.30
2014,09,19,09,16,15.40
2014,09,19,09,17,15.40
2014,09,19,09,18,15.40
2014,09,19,09,19,15.50
2014,09,19,09,20,15.50
2014,09,19,09,21,15.60
2014,09,19,09,22,15.60
2014,09,19,09,23,15.70
2014,09,19,09,24,15.70
2014,09,19,09,25,15.80
2014,09,19,09,26,15.80
2014,09,19,09,27,15.90
2014,09,19,09,28,16.00
2014,09,19,09,29,16.00
2014,09,19,09,30,16.10
2014,09,19,09,31,16.20
2014,09,19,09,32,16.20
2014,09,19,09,33,16.20
2014,09,19,09,34,16.30
2014,09,19,09,35,16.20
2014,09,19,09,36,16.30
2014,09,19,09,37,16.30
2014,09,19,09,38,16.30
2014,09,19,09,39,16.30
2014,09,19,09,40,16.30
2014,09,19,09,41,16.30
2014,09,19,09,42,16.30
2014,09,19,09,43,16.30
2014,09,19,09,44,16.30
2014,09,19,09,45,16.30
2014,09,19,09,46,16.30
2014,09,19,09,47,16.30
2014,09,19,09,48,16.30
2014,09,19,09,49,16.30
2014,09,19,09,50,16.30
2014,09,19,09,51,16.40
2014,09,19,09,52,16.40
2014,09,19,09,53,16.40
2014,09,19,09,54,16.40
2014,09,19,09,55,16.40
2014,09,19,09,56,16.40
2014,09,19,09,57,16.40
2014,09,19,09,58,16.40
2014,09,19,09,59,16.40
2014,09,19,10,00,16.40
2014,09,19,10,01,16.40
2014,09,19,10,02,16.40
2014,09,19,10,03,16.40
2014,09,19,10,04,16.40
2014,09,19,10,05,16.50
2014,09,19,10,06,16.50
2014,09,19,10,07,16.50
2014,09,19,10,08,16.60
2014,09,19,10,09,16.60
2014,09,19,10,10,16.60
2014,09,19,10,11,16.70
2014,09,19,10,12,16.70
2014,09,19,10,13,16.70
2014,09,19,10,14,16.70
2014,09,19,10,15,16.70
2014,09,19,10,16,16.70
2014,09,19,10,17,16.70
2014,09,19,10,18,16.70
2014,09,19,10,19,16.70
2014,09,19,10,20,16.70
2014,09,19,10,21,16.70
2014,09,19,10,22,16.70
2014,09,19,10,23,16.70
2014,09,19,10,24,16.70
2014,09,19,10,25,16.70
2014,09,19,10,26,16.70
2014,09,19,10,27,16.80
2014,09,19,10,28,16.80
2014,09,19,10,29,16.80
2014,09,19,10,30,16.80
2014,09,19,10,31,16.80
2014,09,19,10,32,16.80
2014,09,19,10,33,16.80
2014,09,19,10,34,16.80
2014,09,19,10,35,16.80
2014,09,19,10,36,16.80
2014,09,19,10,37,16.90
2014,09,19,10,38,16.90
2014,09,19,10,39,16.90
2014,09,19,10,40,16.90
2014,09,19,10,41,16.90
2014,09,19,10,42,16.90
2014,09,19,10,43,16.90
2014,09,19,10,44,16.90
2014,09,19,10,45,16.90
2014,09,19,10,46,16.90
2014,09,19,10,47,16.90
2014,09,19,10,48,16.90
2014,09,19,10,49,16.90
2014,09,19,10,50,16.90
2014,09,19,10,51,16.90
2014,09,19,10,52,16.90
2014,09,19,10,53,16.90
2014,09,19,10,54,16.90
2014,09,19,10,55,16.80
2014,09,19,10,56,16.80
2014,09,19,10,57,16.70
2014,09,19,10,58,16.60
2014,09,19,10,59,16.60
2014,09,19,11,00,16.70
2014,09,19,11,01,16.70
2014,09,19,11,02,16.70
2014,09,19,11,03,16.70
2014,09,19,11,04,16.70
2014,09,19,11,05,16.60
2014,09,19,11,06,16.60
2014,09,19,11,07,16.60
2014,09,19,11,08,16.50
2014,09,19,11,09,16.50
2014,09,19,11,10,16.50
2014,09,19,11,11,16.50
2014,09,19,11,12,16.60
2014,09,19,11,13,16.60
2014,09,19,11,14,16.60
2014,09,19,11,15,16.70
2014,09,19,11,16,16.70
2014,09,19,11,17,16.80
2014,09,19,11,18,16.80
2014,09,19,11,19,16.80
2014,09,19,11,20,16.80
2014,09,19,11,21,16.80
2014,09,19,11,22,16.80
2014,09,19,11,23,16.90
2014,09,19,11,24,16.90
2014,09,19,11,25,16.90
2014,09,19,11,26,16.80
2014,09,19,11,27,16.80
2014,09,19,11,28,16.90
2014,09,19,11,29,16.90
2014,09,19,11,30,16.90
2014,09,19,11,31,16.90
2014,09,19,11,32,16.90
2014,09,19,11,33,16.90
2014,09,19,11,34,16.90
2014,09,19,11,35,16.90
2014,09,19,11,36,17.00
2014,09,19,11,37,17.00
2014,09,19,11,38,17.00
2014,09,19,11,39,17.00
2014,09,19,11,40,17.00
2014,09,19,11,41,17.10
2014,09,19,11,42,17.10
2014,09,19,11,43,17.10
2014,09,19,11,44,17.20
2014,09,19,11,45,17.20
2014,09,19,11,46,17.40
2014,09,19,11,47,17.50
2014,09,19,11,48,17.60
2014,09,19,11,49,17.70
2014,09,19,11,50,17.80
2014,09,19,11,51,17.90
2014,09,19,11,52,18.00
2014,09,19,11,53,18.10
2014,09,19,11,54,18.20
2014,09,19,11,55,18.20
2014,09,19,11,56,18.30
2014,09,19,11,57,18.30
2014,09,19,11,58,18.50
2014,09,19,11,59,18.60
2014,09,19,12,00,18.70
2014,09,19,12,01,18.80
2014,09,19,12,02,18.80
2014,09,19,12,03,18.90
2014,09,19,12,04,19.00
2014,09,19,12,05,19.10
2014,09,19,12,06,19.10
2014,09,19,12,07,19.10
2014,09,19,12,08,19.10
2014,09,19,12,09,19.10
2014,09,19,12,10,19.10
2014,09,19,12,11,19.10
2014,09,19,12,12,19.20
2014,09,19,12,13,19.20
2014,09,19,12,14,19.20
2014,09,19,12,15,19.20
2014,09,19,12,16,19.00
2014,09,19,12,17,18.90
2014,09,19,12,18,18.80
2014,09,19,12,19,18.80
2014,09,19,12,20,18.70
2014,09,19,12,21,18.50
2014,09,19,12,22,18.40
2014,09,19,12,23,18.20
2014,09,19,12,24,18.20
2014,09,19,12,25,18.10
2014,09,19,12,26,18.10
2014,09,19,12,27,18.10
2014,09,19,12,28,18.00
2014,09,19,12,29,18.00
2014,09,19,12,30,17.90
2014,09,19,12,31,17.90
2014,09,19,12,32,17.90
2014,09,19,12,33,17.90
2014,09,19,12,34,18.00
2014,09,19,12,35,18.00
2014,09,19,12,36,18.10
2014,09,19,12,37,18.10
2014,09,19,12,38,18.10
2014,09,19,12,39,18.20
2014,09,19,12,40,18.20
2014,09,19,12,41,18.20
2014,09,19,12,42,18.30
2014,09,19,12,43,18.20
2014,09,19,12,44,18.20
2014,09,19,12,45,18.20
2014,09,19,12,46,18.20
2014,09,19,12,47,18.10
2014,09,19,12,48,18.10
2014,09,19,12,49,18.00
2014,09,19,12,50,18.00
2014,09,19,12,51,18.00
2014,09,19,12,52,17.90
2014,09,19,12,53,17.90
2014,09,19,12,54,17.90
2014,09,19,12,55,17.80
2014,09,19,12,56,17.80
2014,09,19,12,57,17.80
2014,09,19,12,58,17.70
2014,09,19,12,59,17.70
2014,09,19,13,00,17.70
2014,09,19,13,01,17.70
2014,09,19,13,02,17.80
2014,09,19,13,03,17.80
2014,09,19,13,04,17.80
2014,09,19,13,05,17.80
2014,09,19,13,06,17.80
2014,09,19,13,07,17.80
2014,09,19,13,08,17.80
2014,09,19,13,09,17.80
2014,09,19,13,10,17.80
2014,09,19,13,11,17.80
2014,09,19,13,12,17.80
2014,09,19,13,13,17.80
2014,09,19,13,14,17.80
2014,09,19,13,15,17.80
2014,09,19,13,16,17.80
2014,09,19,13,17,17.80
2014,09,19,13,18,17.80
2014,09,19,13,19,17.80
2014,09,19,13,20,17.90
2014,09,19,13,21,17.90
2014,09,19,13,22,17.90
2014,09,19,13,23,17.90
2014,09,19,13,24,17.90
2014,09,19,13,25,17.90
2014,09,19,13,26,17.90
2014,09,19,13,27,17.90
2014,09,19,13,28,17.90
2014,09,19,13,29,17.90
2014,09,19,13,30,17.90
2014,09,19,13,31,17.90
2014,09,19,13,32,17.90
2014,09,19,13,33,17.80
2014,09,19,13,34,17.80
2014,09,19,13,35,17.80
2014,09,19,13,36,17.70
2014,09,19,13,37,17.70
2014,09,19,13,38,17.80
2014,09,19,13,39,17.80
2014,09,19,13,40,17.80
2014,09,19,13,41,17.70
2014,09,19,13,42,17.70
2014,09,19,13,43,17.70
2014,09,19,13,44,17.70
2014,09,19,13,45,17.70
2014,09,19,13,46,17.70
2014,09,19,13,47,17.70
2014,09,19,13,48,17.70
2014,09,19,13,49,17.70
2014,09,19,13,50,17.70
2014,09,19,13,51,17.70
2014,09,19,13,52,17.80
2014,09,19,13,53,17.80
2014,09,19,13,54,17.80
2014,09,19,13,55,17.80
2014,09,19,13,56,17.80
2014,09,19,13,57,17.80
2014,09,19,13,58,17.80
2014,09,19,13,59,17.80
2014,09,19,14,00,17.80
2014,09,19,14,01,17.80
2014,09,19,14,02,17.80
2014,09,19,14,03,17.80
2014,09,19,14,04,17.80
2014,09,19,14,05,17.90
2014,09,19,14,06,17.90
2014,09,19,14,07,17.90
2014,09,19,14,08,17.90
2014,09,19,14,09,17.90
2014,09,19,14,10,17.90
2014,09,19,14,11,17.90
2014,09,19,14,12,17.80
2014,09,19,14,13,17.80
2014,09,19,14,14,17.80
2014,09,19,14,15,17.80
2014,09,19,14,16,17.80
2014,09,19,14,17,17.80
2014,09,19,14,18,17.70
2014,09,19,14,19,17.70
2014,09,19,14,20,17.70
2014,09,19,14,21,17.70
2014,09,19,14,22,17.60
2014,09,19,14,23,17.60
2014,09,19,14,24,17.60
2014,09,19,14,25,17.60
2014,09,19,14,26,17.60
2014,09,19,14,27,17.70
2014,09,19,14,28,17.70
2014,09,19,14,29,17.70
2014,09,19,14,30,17.70
2014,09,19,14,31,17.70
2014,09,19,14,32,17.80
2014,09,19,14,33,17.80
2014,09,19,14,34,17.90
2014,09,19,14,35,17.90
2014,09,19,14,36,18.00
2014,09,19,14,37,18.10
2014,09,19,14,38,18.10
2014,09,19,14,39,18.10
2014,09,19,14,40,18.10
2014,09,19,14,41,18.10
2014,09,19,14,42,18.10
2014,09,19,14,43,18.10
2014,09,19,14,44,18.10
2014,09,19,14,45,18.10
2014,09,19,14,46,18.10
2014,09,19,14,47,18.10
2014,09,19,14,48,18.10
2014,09,19,14,49,18.10
2014,09,19,14,50,18.10
